Skip Page Navigation
NASA JPL Caltech
NASA Logo - Jet Propulsion Laboratory + View the NASA Portal
+ Near-Earth Object (NEO) Program
Search JPL
JPL Home Earth Solar System Stars & Galaxies Technology
JPL Solar System Dynamics
BODIES ORBITS EPHEMERIDES TOOLS PHYSICAL DATA DISCOVERY FAQ SITE MAP
JPL Small-Body Database Browser
Search: [ help ]  
(2013 EM20 = 2008 AO112)
Classification: Apollo [NEO, PHA]          SPK-ID: 3403505
Ephemeris | Orbit Diagram | Orbital Elements | Physical Parameters | Close-Approach Data ]

[ hide orbit diagram ]
Orbit Diagram
Note: Make sure you have Java enabled on your browser to see the applet. This applet is provided as a 3D orbit visualization tool. The applet was implemented using 2-body methods, and hence should not be used for determining accurate long-term trajectories (over several years or decades) or planetary encounter circumstances. For accurate long-term ephemerides, please instead use our Horizons system.
Orbit Viewer

Additional Notes: the orbits shown in the applet are color coded. The planets are white lines, and the asteroid/comet is a blue line. The bright white line indicates the portion of the orbit that is above the ecliptic plane, and the darker portion is below the ecliptic plane. Likewise for the asteroid/comet orbit, the light blue indicates the portion above the ecliptic plane, and the dark blue the portion below the ecliptic plane.

Orbit Viewer applet originally written and kindly provided by Osamu Ajiki (AstroArts), and further modified by Ron Baalke (JPL).


Orbital Elements at Epoch 2456400.5 (2013-Apr-18.0) TDB
Reference: JPL 17 (heliocentric ecliptic J2000)
 Element Value Uncertainty (1-sigma)   Units 
e .3182299051491984 1.387e-06  
a 1.37176418187301 4.61e-08 AU
q .9352277963884942 1.8769e-06 AU
i 8.359083095531648 3.634e-05 deg
node 73.97702392720203 0.00028244 deg
peri 350.0327379396829 0.0005195 deg
M 100.3635656998521 0.00027506 deg
tp 2456236.897024984348
(2012-Nov-05.39702498)
0.00045432 JED
period 586.8371713872016
1.61
2.9582e-05
8.099e-08
d
yr
n .6134580724479501 3.0924e-08 deg/d
Q 1.808300567357525 6.077e-08 AU
  Orbit Determination Parameters
   # obs. used (total)      84  
   data-arc span      5882 days (16.10 yr)  
   first obs. used      1997-04-07  
   last obs. used      2013-05-15  
   planetary ephem.      DE405  
   SB-pert. ephem.      SB405-CPV-2  
   condition code      1  
   fit RMS      .63878  
   data source      ORB  
   producer      Otto Matic  
   solution date      2013-May-16 01:14:56  

Additional Information
 Earth MOID = .043061 AU 
 T_jup = 4.756 
[ show covariance matrix ]

Ephemeris | Orbit Diagram | Orbital Elements | Physical Parameters | Close-Approach Data ]

Physical Parameter Table
Parameter Symbol Value Units Sigma Reference Notes
absolute magnitude H 19.874 mag .47649 17 autocmod 2.5c

[ show close-approach data ]
Alternate Designations
 2013 EM20 = 2008 AO112 
Ephemeris | Orbit Diagram | Orbital Elements | Physical Parameters | Close-Approach Data ]
ABOUT SSD CREDITS/AWARDS PRIVACY/COPYRIGHT GLOSSARY LINKS
FirstGov 2013-May-25 13:02 UT
(server date/time)  
NASA Home Page
Site Manager:   Donald K. Yeomans
Webmaster  Alan B. Chamberlin